Location: Limerick
(52.6650°N, 8.6230°W)
Time: 02:53:54
(UTC+01:00)

ISS - Visible Passes

Search period start: 29 May 2017 00:00
Search period end: 08 June 2017 00:00
Orbit: 402 x 408 km, 51.6° (Epoch: 29 May)

Date Brightness Start Highest point End Pass type
(mag) Time Alt. Az. Time Alt. Az. Time Alt. Az.
29 May -3.7 01:24:14 10° W 01:27:27 52° SSW 01:28:36 33° SE visible
29 May -3.9 22:55:46 10° WSW 22:59:03 69° S 23:02:20 10° E visible
30 May -3.9 00:32:11 10° W 00:35:28 64° S 00:37:45 18° ESE visible
30 May -2.1 02:08:52 10° W 02:10:23 19° WSW 02:10:23 19° WSW visible
30 May -3.9 23:40:09 10° W 23:43:26 73° S 23:46:44 10° E visible
31 May -3.2 01:16:41 10° W 01:19:43 34° SSW 01:19:43 34° SSW visible
31 May -3.9 22:48:05 10° W 22:51:24 76° S 22:54:42 10° E visible
01 Jun -3.5 00:24:34 10° W 00:27:46 47° SSW 00:29:09 27° SE visible
01 Jun -3.8 23:32:29 10° W 23:35:45 60° SSW 23:38:38 13° ESE visible
02 Jun -2.2 01:09:15 10° W 01:11:17 20° SW 01:11:17 20° SW visible
02 Jun -3.8 22:40:24 10° W 22:43:42 70° S 22:46:59 10° ESE visible
03 Jun -2.9 00:16:58 10° W 00:19:55 30° SSW 00:20:48 26° S visible
03 Jun -3.3 23:24:48 10° W 23:27:57 42° SSW 23:30:21 15° SE visible
04 Jun -1.4 01:02:22 10° WSW 01:02:59 12° SW 01:02:59 12° SW visible
05 Jun -2.1 00:09:33 10° W 00:11:57 19° SW 00:12:35 18° SSW visible
05 Jun -2.5 23:17:10 10° W 23:20:01 27° SSW 23:22:11 14° SSE visible
07 Jun -1.4 00:03:10 10° SW 00:03:48 10° SW 00:04:26 10° SSW visible
07 Jun -1.7 23:09:48 10° WSW 23:11:56 16° SW 23:14:03 10° S visible
